Location: Newark
(51.3000°N, 178.2000°W)
Time: 01:28:27
(UTC+00:00)

ISS - Pass Details

Date: 09 May 2021
Orbit: 417 x 422 km, 51.6° (Epoch: 15 June)

Event Time Altitude Azimuth Distance (km) Brightness Sun altitude
Exits shadow 13:58:30 20° 269° (W) 1,042 -2.1 -15.6°
Maximum altitude 14:00:44 83° 356° (N) 431 -3.7 -15.4°
Drops below altitude 10° 14:04:08 10° 85° (E) 1,511 -0.4 -15.1°
Sets 14:06:14 0° 87° (E) 2,377 0.6 -14.9°
